Location: Home
(42.5358°N, 72.7383°W)
Time: 16:36:46
(UTC-05:00)

PCSat - Visible Passes

Search period start: 21 January 2022 00:00
Search period end: 31 January 2022 00:00
Orbit: 784 x 794 km, 67.1° (Epoch: 21 January)

Date Brightness Start Highest point End Pass type
(mag) Time Alt. Az. Time Alt. Az. Time Alt. Az.
21 Jan 11.6 05:58:14 10° N 06:02:32 23° NE 06:06:47 10° E visible
22 Jan 11.8 05:27:30 10° N 05:31:12 18° NE 05:34:54 10° E visible
23 Jan 12.0 04:56:52 10° N 04:59:50 15° NE 05:02:46 10° ENE visible
23 Jan 9.9 06:38:47 10° NNW 06:44:14 70° ENE 06:49:38 10° SE visible
24 Jan 12.2 04:26:34 10° NNE 04:28:24 12° NNE 04:30:14 10° NE visible
24 Jan 10.3 06:07:47 10° NNW 06:13:06 52° NE 06:18:23 10° SE visible
25 Jan 10.8 05:36:50 10° NNW 05:41:56 39° NE 05:46:59 10° ESE visible
26 Jan 11.2 05:06:01 10° NNW 05:10:42 30° NE 05:15:26 10° ESE visible
27 Jan 11.6 04:36:02 14° N 04:39:26 24° NE 04:43:44 10° E visible
27 Jan 9.7 06:17:52 10° NW 06:23:14 62° WSW 06:28:34 10° SSE visible
28 Jan 11.8 04:06:07 16° NNE 04:08:07 19° NE 04:11:52 10° E visible
28 Jan 9.5 05:46:51 11° NNW 05:52:12 84° WSW 05:57:37 10° SSE visible
29 Jan 12.1 03:36:18 15° NNE 03:36:44 15° NE 03:39:46 10° ENE visible
29 Jan 9.7 05:17:02 18° NNW 05:21:06 72° ENE 05:26:31 10° SE visible
30 Jan 12.5 03:06:34 11° NE 03:06:34 11° NE 03:07:18 10° NE visible
30 Jan 10.2 04:47:19 28° N 04:49:59 53° NE 04:55:16 10° SE visible
30 Jan 10.8 06:28:49 10° WNW 06:32:58 23° WSW 06:37:06 10° SSW visible
30 Jan 11.5 19:26:51 10° S 19:27:58 16° S 19:27:58 16° S visible
